Flag for U.S.A. Weather past 2 weeks in Eau Claire, Wisconsin, U.S.A.

Now
35 °F

Clear.


Feels Like: 26 °F
Forecast: 32 / 49 °F
Wind: 13 mph from South

Location: Eau Claire County Airport

Current Time: Mar 29, 2015 at 2:55:01 AM

Latest Report: Mar 29, 2015 at 1:56 AM


Visibility: 10 mi

Pressure: 29.97 "Hg

Humidity: 42%

Dew point: 14 °F

Location of Eau ClaireLocation

Historic Weather in Eau Claire — Graph

°F

Eau Claire temperature yesterday

Maximum temperature yesterday: 43 °F (at 3:56 PM)
Minimum temperature yesterday: 14 °F (at 6:56 AM)
Average temperature yesterday: 30 °F

Past Weeks' High & Low Weather Summary

 TemperatureHumidityPressure
High64 °F (Mar 15, 3:56 PM)93% (Mar 15, 6:56 AM)30.48 "Hg (Mar 15, 6:56 AM)
Low14 °F (Mar 28, 6:56 AM)21% (Mar 17, 4:56 PM)29.75 "Hg (Mar 16, 11:56 AM)
Average36 °F55%30.14 "Hg
* Reported Mar 14 1:56 AM — Mar 29 1:56 AM, Eau Claire, Weather by CustomWeather, © 2015

Note: Actual official high and low records may vary slightly from our data, if they occured in-between our weather recording intervals... More about our weather records

Advertising

Eau Claire weather history for previous 24 hours

 ConditionsComfort  
Time TempWeatherWind HumidityBarometerVisibility
1:56 AM
Sun, Mar 29
35 °FClear.13 mph42%29.97 "Hg10 mi
12:56 AM34 °FClear.16 mph44%29.99 "Hg10 mi
11:56 PM
Sat, Mar 28
34 °FClear.14 mph44%30.03 "Hg10 mi
10:56 PM34 °FClear.13 mph44%30.08 "Hg10 mi
9:56 PM34 °FClear.10 mph42%30.11 "Hg10 mi
8:56 PM34 °FClear.10 mph40%30.14 "Hg10 mi
7:56 PM35 °FSunny.10 mph35%30.15 "Hg10 mi
6:56 PM37 °FSunny.14 mph30%30.16 "Hg10 mi
5:56 PM40 °FSunny.13 mph24%30.17 "Hg10 mi
4:56 PM41 °FSunny.12 mph26%30.18 "Hg10 mi
3:56 PM43 °FSunny.10 mph24%30.19 "Hg10 mi
2:56 PM42 °FSunny.13 mph25%30.21 "Hg10 mi
1:56 PM40 °FSunny.10 mph27%30.25 "Hg10 mi
12:56 PM39 °FSunny.10 mph30%30.27 "Hg10 mi
11:56 AM37 °FSunny.12 mph31%30.29 "Hg10 mi
10:56 AM35 °FSunny.6 mph35%30.31 "Hg10 mi
9:56 AM31 °FSunny.5 mph43%30.31 "Hg10 mi
8:56 AM25 °FSunny.No wind63%30.31 "Hg10 mi
7:56 AM19 °FSunny.No wind85%30.30 "Hg10 mi
6:56 AM14 °FClear.No wind80%30.28 "Hg10 mi
5:56 AM15 °FClear.No wind83%30.26 "Hg10 mi
4:56 AM16 °FClear.3 mph80%30.24 "Hg10 mi
3:56 AM17 °FClear.No wind76%30.23 "Hg10 mi
2:56 AM19 °FClear.No wind74%30.23 "Hg10 mi
Weather by CustomWeather, © 2015

See weather overviewHow to use our weather pages